�������l�o���
Date,Time,MP-1(��Sv/h),MP-2(��Sv/h),MP-3(��Sv/h),MP-4(��Sv/h),MP-5(��Sv/h),MP-6(��Sv/h),MP-7(��Sv/h),MP-8(��Sv/h),����,����(m/s),���J
2018/11/29,00:00,0.792,1.199,0.839,1.490,1.080,0.456,0.807,0.765,�k,7.5,�L
2018/11/29,00:10,0.791,1.195,0.839,1.492,1.081,0.457,0.806,0.764,�k,7.8,�L
2018/11/29,00:20,0.790,1.195,0.839,1.497,1.081,0.456,0.805,0.764,�k,7.9,��
2018/11/29,00:30,0.791,1.194,0.837,1.489,1.081,0.456,0.806,0.765,�k,7.7,�L
2018/11/29,00:40,0.790,1.199,0.837,1.487,1.083,0.457,0.807,0.765,�k,8.6,�L
2018/11/29,00:50,0.789,1.199,0.838,1.490,1.081,0.456,0.807,0.763,�k,7.2,�L
2018/11/29,01:00,0.792,1.199,0.837,1.496,1.082,0.458,0.807,0.763,�k,6.6,�L
2018/11/29,01:10,0.790,1.197,0.839,1.492,1.083,0.457,0.805,0.762,�k�k��,8.4,�L
2018/11/29,01:20,0.793,1.195,0.838,1.498,1.081,0.458,0.806,0.762,�k,7.5,�L
2018/11/29,01:30,0.791,1.190,0.838,1.498,1.077,0.459,0.804,0.763,�k�k��,7.9,�L
2018/11/29,01:40,0.790,1.190,0.836,1.498,1.075,0.458,0.804,0.763,�k�k��,9.1,�L
2018/11/29,01:50,0.788,1.186,0.837,1.498,1.075,0.458,0.804,0.764,�k�k��,6.8,�L
2018/11/29,02:00,0.787,1.188,0.837,1.496,1.073,0.459,0.804,0.763,�k,6.9,�L
2018/11/29,02:10,0.787,1.188,0.836,1.494,1.072,0.459,0.803,0.762,�k�k��,6.0,�L
2018/11/29,02:20,0.789,1.186,0.835,1.497,1.072,0.459,0.805,0.761,�k�k��,6.0,�L
2018/11/29,02:30,0.789,1.184,0.836,1.495,1.071,0.459,0.806,0.761,�k�k��,5.7,�L
2018/11/29,02:40,0.787,1.187,0.833,1.496,1.072,0.457,0.803,0.761,�k�k��,5.8,��
2018/11/29,02:50,0.786,1.186,0.834,1.494,1.071,0.456,0.805,0.761,�k�k��,5.9,��
2018/11/29,03:00,0.786,1.185,0.834,1.496,1.072,0.456,0.805,0.761,�k�k��,6.2,��
2018/11/29,03:10,0.787,1.188,0.833,1.493,1.071,0.456,0.805,0.761,�k�k��,5.9,��
2018/11/29,03:20,0.785,1.187,0.834,1.493,1.069,0.457,0.807,0.761,�k�k��,6.6,��
2018/11/29,03:30,0.785,1.186,0.834,1.495,1.072,0.454,0.805,0.760,�k�k��,6.1,��
2018/11/29,03:40,0.785,1.183,0.833,1.495,1.068,0.454,0.802,0.763,�k�k��,7.2,��
2018/11/29,03:50,0.786,1.185,0.833,1.495,1.070,0.454,0.806,0.762,�k�k��,6.3,��
2018/11/29,04:00,0.784,1.187,0.833,1.493,1.070,0.455,0.804,0.761,�k�k��,6.1,��
2018/11/29,04:10,0.784,1.185,0.833,1.492,1.070,0.454,0.804,0.762,�k�k��,6.3,��
2018/11/29,04:20,0.786,1.184,0.832,1.494,1.071,0.455,0.803,0.762,�k�k��,6.7,��
2018/11/29,04:30,0.785,1.184,0.832,1.493,1.068,0.454,0.802,0.762,�k�k��,6.8,��
2018/11/29,04:40,0.784,1.186,0.832,1.492,1.071,0.454,0.805,0.761,�k,7.4,��
2018/11/29,04:50,0.784,1.187,0.834,1.492,1.069,0.454,0.805,0.763,�k�k��,7.3,��
2018/11/29,05:00,0.783,1.185,0.834,1.494,1.068,0.454,0.804,0.763,�k�k��,6.8,��
2018/11/29,05:10,0.783,1.184,0.833,1.492,1.071,0.455,0.803,0.762,�k�k��,7.9,��
2018/11/29,05:20,0.784,1.186,0.831,1.494,1.070,0.454,0.804,0.760,�k�k��,7.5,��
2018/11/29,05:30,0.784,1.184,0.833,1.494,1.072,0.453,0.802,0.762,�k�k��,6.5,��
2018/11/29,05:40,0.784,1.183,0.832,1.494,1.069,0.452,0.803,0.761,�k�k��,6.9,��
2018/11/29,05:50,0.786,1.186,0.834,1.494,1.073,0.453,0.804,0.761,�k�k��,7.0,��
2018/11/29,06:00,0.784,1.184,0.832,1.495,1.068,0.453,0.803,0.759,�k�k��,8.3,��
2018/11/29,06:10,0.785,1.186,0.832,1.493,1.068,0.454,0.803,0.759,�k,7.5,��
2018/11/29,06:20,0.784,1.185,0.833,1.493,1.070,0.452,0.805,0.761,�k�k��,7.6,��
2018/11/29,06:30,0.785,1.186,0.834,1.492,1.071,0.454,0.804,0.759,�k�k��,5.4,��
2018/11/29,06:40,0.783,1.187,0.832,1.494,1.071,0.453,0.804,0.761,�k�k��,5.9,��
2018/11/29,06:50,0.782,1.183,0.832,1.494,1.071,0.452,0.805,0.760,�k�k��,6.5,��
2018/11/29,07:00,0.784,1.185,0.834,1.492,1.068,0.453,0.804,0.762,�k�k��,6.6,��
2018/11/29,07:10,0.784,1.186,0.835,1.493,1.070,0.452,0.805,0.761,�k�k��,6.4,��
2018/11/29,07:20,0.782,1.186,0.831,1.493,1.068,0.453,0.805,0.760,�k�k��,5.6,��
2018/11/29,07:30,0.783,1.186,0.832,1.492,1.069,0.453,0.804,0.760,�k�k��,6.2,��
2018/11/29,07:40,0.783,1.185,0.833,1.492,1.072,0.453,0.804,0.761,�k�k��,5.8,��
2018/11/29,07:50,0.785,1.184,0.832,1.495,1.070,0.453,0.805,0.760,�k�k��,6.3,��
2018/11/29,08:00,0.783,1.186,0.833,1.493,1.070,0.452,0.806,0.761,�k�k��,5.4,��
2018/11/29,08:10,0.785,1.189,0.831,1.495,1.070,0.452,0.805,0.760,�k�k��,5.8,��
2018/11/29,08:20,0.784,1.189,0.831,1.493,1.072,0.453,0.806,0.760,�k�k��,5.9,��
2018/11/29,08:30,0.786,1.184,0.830,1.493,1.072,0.454,0.804,0.761,�k�k��,6.0,��
2018/11/29,08:40,0.784,1.183,0.830,1.492,1.074,0.454,0.805,0.760,�k�k��,6.4,��
2018/11/29,08:50,0.785,1.183,0.832,1.496,1.071,0.454,0.807,0.760,�k,6.4,��
2018/11/29,09:00,0.787,1.185,0.831,1.494,1.074,0.454,0.806,0.762,�k,5.8,��
2018/11/29,09:10,0.787,1.184,0.834,1.493,1.070,0.453,0.806,0.761,�k,5.5,��
2018/11/29,09:20,0.785,1.183,0.834,1.493,1.071,0.454,0.804,0.761,�k,4.7,��
2018/11/29,09:30,0.786,1.184,0.831,1.496,1.072,0.454,0.802,0.762,�k,6.4,��
2018/11/29,09:40,0.785,1.181,0.832,1.493,1.073,0.454,0.805,0.762,�k,6.5,��
2018/11/29,09:50,0.785,1.183,0.833,1.494,1.071,0.453,0.805,0.762,�k,6.6,��
2018/11/29,10:00,0.785,1.180,0.831,1.495,1.072,0.454,0.804,0.761,�k,6.6,��
2018/11/29,10:10,0.787,1.181,0.831,1.494,1.075,0.455,0.805,0.760,�k,5.8,��
2018/11/29,10:20,0.786,1.181,0.835,1.497,1.076,0.454,0.803,0.761,�k�k��,5.9,��
2018/11/29,10:30,0.789,1.182,0.832,1.497,1.075,0.454,0.804,0.762,�k�k��,5.4,��
2018/11/29,10:40,0.788,1.181,0.834,1.497,1.075,0.455,0.804,0.761,�k�k��,7.6,��
2018/11/29,10:50,0.788,1.184,0.833,1.495,1.074,0.456,0.804,0.762,�k�k��,6.4,��
2018/11/29,11:00,0.787,1.184,0.833,1.494,1.077,0.455,0.804,0.761,�k,6.3,��
2018/11/29,11:10,0.788,1.182,0.836,1.496,1.078,0.455,0.805,0.763,�k�k��,6.8,��
2018/11/29,11:20,0.788,1.183,0.834,1.498,1.078,0.453,0.805,0.761,�k�k��,6.9,��
2018/11/29,11:30,0.790,1.184,0.833,1.496,1.077,0.453,0.805,0.763,�k�k��,6.6,��
2018/11/29,11:40,0.786,1.187,0.835,1.497,1.078,0.454,0.804,0.762,�k�k��,7.7,��
2018/11/29,11:50,0.786,1.183,0.835,1.497,1.079,0.456,0.806,0.763,�k,7.7,��
2018/11/29,12:00,0.786,1.190,0.836,1.499,1.077,0.455,0.804,0.763,�k,8.4,��
2018/11/29,12:10,0.785,1.190,0.836,1.498,1.079,0.454,0.807,0.763,�k�k��,8.0,��
2018/11/29,12:20,0.786,1.189,0.836,1.497,1.076,0.454,0.806,0.762,�k,8.5,��
2018/11/29,12:30,0.789,1.184,0.835,1.497,1.077,0.454,0.805,0.763,�k,8.3,��
2018/11/29,12:40,0.788,1.185,0.837,1.496,1.074,0.454,0.805,0.761,�k�k��,8.4,��
2018/11/29,12:50,0.789,1.185,0.836,1.499,1.075,0.454,0.806,0.762,�k�k��,8.0,��
2018/11/29,13:00,0.791,1.179,0.834,1.497,1.074,0.455,0.803,0.760,�k�k��,8.8,��
2018/11/29,13:10,0.789,1.180,0.834,1.497,1.076,0.456,0.805,0.758,�k�k��,8.5,��
2018/11/29,13:20,0.788,1.183,0.837,1.497,1.076,0.455,0.806,0.760,�k�k��,7.5,��
2018/11/29,13:30,0.791,1.182,0.835,1.497,1.079,0.454,0.805,0.760,�k�k��,7.3,��
2018/11/29,13:40,0.790,1.181,0.836,1.497,1.079,0.454,0.804,0.762,�k��,6.4,��
2018/11/29,13:50,0.790,1.178,0.837,1.498,1.079,0.454,0.805,0.761,�k��,7.2,��
2018/11/29,14:00,0.791,1.184,0.835,1.496,1.078,0.454,0.805,0.761,�k��,7.0,��
2018/11/29,14:10,0.790,1.185,0.835,1.497,1.080,0.455,0.805,0.762,�k��,5.1,��
2018/11/29,14:20,0.790,1.185,0.836,1.496,1.081,0.454,0.805,0.761,�k��,4.7,��
2018/11/29,14:30,0.790,1.187,0.835,1.498,1.080,0.456,0.804,0.762,�k�k��,4.8,��
2018/11/29,14:40,0.789,1.189,0.834,1.496,1.081,0.455,0.805,0.761,�k�k��,5.0,��
2018/11/29,14:50,0.791,1.188,0.834,1.496,1.080,0.455,0.808,0.762,�k��,5.5,��
2018/11/29,15:00,0.790,1.186,0.837,1.496,1.081,0.454,0.804,0.761,�k�k��,4.9,��
2018/11/29,15:10,0.791,1.187,0.836,1.499,1.081,0.456,0.806,0.764,�k�k��,4.4,��
2018/11/29,15:20,0.790,1.186,0.836,1.496,1.080,0.456,0.805,0.763,�k�k��,3.6,��
2018/11/29,15:30,0.791,1.187,0.836,1.498,1.080,0.456,0.805,0.763,�k�k��,3.5,��
2018/11/29,15:40,0.790,1.188,0.835,1.499,1.083,0.456,0.805,0.762,�k�k��,2.5,��
2018/11/29,15:50,0.792,1.190,0.837,1.499,1.080,0.455,0.806,0.764,�k��,2.8,��
2018/11/29,16:00,0.790,1.193,0.834,1.498,1.079,0.455,0.806,0.763,�k�k��,2.0,��
2018/11/29,16:10,0.792,1.194,0.835,1.498,1.077,0.455,0.805,0.765,�k��,1.7,��
2018/11/29,16:20,0.790,1.194,0.836,1.500,1.077,0.454,0.807,0.762,�k�k��,1.5,��
2018/11/29,16:30,0.788,1.194,0.837,1.499,1.078,0.456,0.805,0.764,�k�k��,1.5,��
2018/11/29,16:40,0.790,1.193,0.837,1.495,1.078,0.456,0.807,0.763,�k�k��,1.2,��
2018/11/29,16:50,0.790,1.195,0.835,1.498,1.079,0.457,0.807,0.762,�k,1.5,��
2018/11/29,17:00,0.790,1.189,0.836,1.496,1.079,0.455,0.806,0.764,�k,1.5,��
2018/11/29,17:10,0.789,1.195,0.836,1.497,1.077,0.454,0.806,0.761,�k,1.2,��
2018/11/29,17:20,0.790,1.193,0.835,1.498,1.078,0.453,0.807,0.762,�k�k��,1.2,��
2018/11/29,17:30,0.788,1.193,0.836,1.498,1.079,0.457,0.806,0.762,�k,1.5,��
2018/11/29,17:40,0.789,1.192,0.835,1.491,1.076,0.454,0.806,0.763,�k�k��,1.5,��
2018/11/29,17:50,0.786,1.194,0.834,1.486,1.080,0.455,0.804,0.762,�k�k��,1.5,��
2018/11/29,18:00,0.786,1.192,0.834,1.489,1.076,0.454,0.804,0.761,�k�k��,1.5,��
2018/11/29,18:10,0.789,1.195,0.836,1.490,1.077,0.455,0.807,0.762,�k,2.3,��
2018/11/29,18:20,0.787,1.192,0.835,1.490,1.079,0.456,0.807,0.761,�k,2.0,��
2018/11/29,18:30,0.788,1.191,0.834,1.488,1.078,0.455,0.806,0.762,�k�k��,2.6,��
2018/11/29,18:40,0.787,1.192,0.837,1.489,1.079,0.454,0.806,0.762,�k��,4.5,��
2018/11/29,18:50,0.788,1.192,0.835,1.489,1.080,0.456,0.806,0.761,�k��,4.4,��
2018/11/29,19:00,0.789,1.193,0.838,1.491,1.078,0.453,0.807,0.763,�k��,3.2,��
2018/11/29,19:10,0.789,1.195,0.835,1.489,1.077,0.456,0.807,0.763,�쐼,2.3,��
2018/11/29,19:20,0.789,1.193,0.834,1.491,1.077,0.455,0.806,0.763,��쐼,2.8,��
2018/11/29,19:30,0.788,1.193,0.835,1.489,1.079,0.456,0.806,0.761,�쐼,1.5,��
2018/11/29,19:40,0.788,1.191,0.835,1.490,1.078,0.455,0.807,0.761,�쐼,1.2,��
2018/11/29,19:50,0.790,1.192,0.835,1.490,1.078,0.455,0.806,0.761,��쐼,3.0,��
2018/11/29,20:00,0.788,1.191,0.836,1.491,1.078,0.457,0.805,0.762,��,7.0,��
2018/11/29,20:10,0.788,1.193,0.834,1.489,1.078,0.454,0.806,0.762,��,6.1,��
2018/11/29,20:20,0.789,1.194,0.836,1.492,1.079,0.454,0.806,0.763,��,6.9,��
2018/11/29,20:30,0.790,1.194,0.837,1.490,1.077,0.456,0.806,0.764,��쐼,7.4,��
2018/11/29,20:40,0.789,1.190,0.834,1.487,1.078,0.454,0.807,0.763,��쐼,8.4,��
2018/11/29,20:50,0.789,1.195,0.837,1.487,1.077,0.454,0.805,0.761,��쐼,9.5,��
2018/11/29,21:00,0.790,1.194,0.837,1.489,1.078,0.453,0.805,0.761,�쐼,5.8,��
2018/11/29,21:10,0.789,1.195,0.836,1.492,1.077,0.455,0.807,0.764,�쐼,5.8,��
2018/11/29,21:20,0.790,1.196,0.834,1.491,1.078,0.454,0.806,0.762,�쐼,6.4,��
2018/11/29,21:30,0.789,1.193,0.835,1.488,1.076,0.455,0.807,0.762,��쐼,6.3,��
2018/11/29,21:40,0.790,1.192,0.837,1.490,1.081,0.456,0.806,0.763,��쐼,7.3,��
2018/11/29,21:50,0.788,1.194,0.838,1.491,1.079,0.456,0.806,0.762,��쐼,8.7,��
2018/11/29,22:00,0.789,1.192,0.837,1.492,1.077,0.455,0.805,0.763,��쐼,7.7,��
2018/11/29,22:10,0.788,1.193,0.835,1.490,1.079,0.455,0.805,0.762,��쐼,7.3,��
2018/11/29,22:20,0.789,1.192,0.836,1.492,1.075,0.456,0.805,0.763,�쐼,5.8,��
2018/11/29,22:30,0.791,1.195,0.838,1.490,1.078,0.456,0.807,0.764,��쐼,5.7,��
2018/11/29,22:40,0.789,1.193,0.835,1.492,1.078,0.458,0.805,0.762,�쐼,5.5,��
2018/11/29,22:50,0.788,1.194,0.835,1.488,1.078,0.456,0.808,0.762,�쐼,5.2,��
2018/11/29,23:00,0.788,1.193,0.836,1.489,1.079,0.455,0.808,0.764,��쐼,4.9,��
2018/11/29,23:10,0.790,1.193,0.837,1.490,1.078,0.456,0.807,0.762,��,5.5,��
2018/11/29,23:20,0.790,1.192,0.838,1.490,1.080,0.456,0.808,0.762,��쐼,5.2,��
2018/11/29,23:30,0.788,1.193,0.835,1.487,1.076,0.455,0.805,0.762,��,4.1,��
2018/11/29,23:40,0.790,1.189,0.836,1.490,1.078,0.457,0.807,0.763,��,2.8,��
2018/11/29,23:50,0.790,1.194,0.839,1.489,1.080,0.457,0.807,0.763,��,2.5,��
